KB5DPX Weather Reports


Display with metric or nautical units.
time (UTC)temp
F
wind
direction
speed
MPH
gust
MPH
rain 1hr
in
rain 24hr
in
rain mn
in
humidity
%
barometer
mb
20260831181304 81 0.0 0.0 0.00 0.36 0.35 80 1012.6
20260831180752 81 0.0 0.0 0.00 0.36 0.35 81 1012.6
20260831175807 80 0.0 0.0 0.00 0.36 0.35 81 1012.6
20260831175255 80 0.0 0.0 0.00 0.36 0.35 82 1012.8
20260831174803 79 0.0 0.0 0.00 0.36 0.35 83 1012.9
20260831174253 79 0.0 0.0 0.00 0.36 0.35 84 1012.9
20260831173757 78 0.0 0.0 0.00 0.36 0.35 83 1013.0
20260831173248 78 0.0 0.0 0.00 0.36 0.35 84 1013.0
20260831172755 78 0.0 0.0 0.00 0.36 0.35 84 1013.0
20260831172306 78 0.0 0.0 0.00 0.36 0.35 85 1013.1
20260831171753 78 0.0 0.0 0.00 0.36 0.35 84 1013.1
20260831170750 77 0.0 0.0 0.00 0.36 0.35 85 1013.1
20260831170300 77 0.0 0.0 0.00 0.36 0.35 86 1013.1
20260831165747 76 0.0 0.0 0.00 0.36 0.35 87 1013.1
20260831165258 76 0.0 0.0 0.00 0.36 0.35 87 1013.1
20260831164805 76 0.0 0.0 0.00 0.36 0.35 86 1013.2
20260831164254 75 0.0 0.0 0.00 0.36 0.35 85 1013.2
20260831163303 74 0.0 0.0 0.00 0.36 0.35 77 1013.4
20260831162751 74 0.0 0.0 0.00 0.36 0.35 69 1013.5
20260831162254 73 0.0 0.0 0.00 0.36 0.35 65 1013.7
20260831161803 73 0.0 0.0 0.00 0.36 0.35 62 1013.7
20260831161252 72 0.0 0.0 0.00 0.36 0.35 60 1013.8
20260831160759 72 0.0 0.0 0.00 0.36 0.35 60 1013.9
20260831160248 72 0.0 0.0 0.00 0.36 0.35 59 1013.9
20260831155757 72 0.0 0.0 0.00 0.36 0.35 59 1013.9
20260831155248 72 0.0 0.0 0.00 0.36 0.35 59 1014.0
20260831154755 72 0.0 0.0 0.00 0.36 0.35 59 1014.0
20260831154301 72 0.0 0.0 0.00 0.36 0.35 59 1014.1
20260831153748 71 0.0 0.0 0.01 0.36 0.35 60 1014.3
20260831153306 71 0.0 0.0 0.01 0.36 0.35 60 1014.4
20260831152813 70 0.0 0.0 0.01 0.36 0.35 60 1014.4
20260831152306 70 0.0 0.0 0.01 0.36 0.35 60 1014.5
20260831151812 69 0.0 0.0 0.01 0.36 0.35 60 1014.5
20260831151301 69 0.0 0.0 0.01 0.36 0.35 60 1014.4
20260831150805 69 0.0 0.0 0.02 0.36 0.35 60 1014.3
20260831150255 69 0.0 0.0 0.02 0.36 0.35 60 1014.3
20260831145801 69 0.0 0.0 0.03 0.36 0.35 60 1014.4
20260831145250 69 0.0 0.0 0.04 0.36 0.35 60 1014.5
20260831144759 69 0.0 0.0 0.05 0.36 0.35 60 1014.6
20260831144306 69 0.0 0.0 0.07 0.36 0.35 60 1014.7
20260831143756 69 0.0 0.0 0.07 0.35 0.34 60 1014.8
20260831143258 69 0.0 0.0 0.08 0.35 0.34 60 1014.5
20260831142807 69 0.0 0.0 0.09 0.35 0.34 60 1014.6
20260831141801 69 0.0 0.0 0.12 0.35 0.34 60 1014.8
20260831141251 68 0.0 0.0 0.12 0.34 0.33 60 1014.9
20260831140759 68 0.0 0.0 0.14 0.34 0.33 60 1014.9
20260831140307 68 0.0 0.0 0.14 0.34 0.33 60 1015.0
20260831135756 68 0.0 0.0 0.14 0.33 0.32 60 1015.1
20260831135306 68 0.0 0.0 0.15 0.32 0.31 60 1015.2
20260831134752 68 0.0 0.0 0.15 0.31 0.30 60 1015.3
20260831134300 68 0.0 0.0 0.14 0.29 0.28 60 1015.3
20260831133748 68 0.0 0.0 0.13 0.28 0.27 61 1015.2
20260831133258 68 0.0 0.0 0.13 0.27 0.26 61 1015.1
20260831132805 68 0.0 0.0 0.11 0.25 0.24 60 1015.3
20260831132254 68 0.0 0.0 0.11 0.24 0.23 60 1015.5
20260831131802 68 0.0 0.0 0.10 0.22 0.21 60 1015.4
20260831131252 68 0.0 0.0 0.10 0.21 0.20 61 1015.4
20260831130759 67 0.0 0.0 0.10 0.20 0.19 61 1015.6
20260831130303 67 0.0 0.0 0.12 0.20 0.19 61 1015.7
20260831125258 67 0.0 0.0 0.11 0.17 0.16 61 1015.7
20260831124750 67 0.0 0.0 0.10 0.16 0.15 61 1015.4
20260831124258 67 0.0 0.0 0.09 0.15 0.14 61 1015.2
20260831123806 67 0.0 0.0 0.08 0.14 0.13 61 1015.0
20260831123256 67 0.0 0.0 0.08 0.14 0.13 61 1014.7
20260831122802 67 0.0 0.0 0.07 0.13 0.12 61 1014.7
20260831121759 67 0.0 0.0 0.06 0.12 0.11 61 1014.4
20260831121307 67 0.0 0.0 0.05 0.11 0.10 61 1014.3
20260831120757 67 0.0 0.0 0.04 0.10 0.09 61 1014.4
20260831120303 67 0.0 0.0 0.02 0.08 0.07 61 1014.5
20260831115753 67 0.0 0.0 0.01 0.07 0.06 61 1014.1
20260831115301 67 0.0 0.0 0.00 0.06 0.05 61 1014.0
20260831114750 67 0.0 0.0 0.00 0.06 0.05 61 1013.8
20260831114253 67 0.0 0.0 0.00 0.06 0.05 61 1013.9
20260831113800 67 0.0 0.0 0.01 0.06 0.05 61 1013.7
20260831113250 67 0.0 0.0 0.01 0.06 0.05 61 1013.6
20260831112756 67 0.0 0.0 0.02 0.06 0.05 61 1013.5
20260831112307 67 0.0 0.0 0.02 0.06 0.05 61 1013.7
20260831111754 67 0.0 0.0 0.02 0.06 0.05 61 1013.8
20260831111302 67 0.0 0.0 0.02 0.06 0.05 61 1013.7
20260831110750 67 0.0 0.0 0.03 0.06 0.05 61 1013.9
20260831110258 67 0.0 0.0 0.03 0.06 0.05 61 1013.8
20260831105806 67 0.0 0.0 0.04 0.06 0.05 61 1013.7
20260831105255 67 0.0 0.0 0.04 0.06 0.05 61 1013.6
20260831104802 67 0.0 0.0 0.04 0.06 0.05 61 1013.6
20260831104251 67 0.0 0.0 0.04 0.06 0.05 61 1013.9
20260831103800 67 0.0 0.0 0.03 0.05 0.04 61 1014.0
20260831103307 67 0.0 0.0 0.03 0.05 0.04 61 1014.2
20260831102756 67 0.0 0.0 0.03 0.04 0.03 61 1014.2
20260831102305 67 0.0 0.0 0.03 0.04 0.03 61 1014.5
20260831101752 67 0.0 0.0 0.03 0.04 0.03 61 1014.6
20260831101300 67 0.0 0.0 0.03 0.04 0.03 61 1014.8
20260831100750 67 0.0 0.0 0.02 0.03 0.02 61 1015.0
20260831100258 67 0.0 0.0 0.02 0.03 0.02 61 1015.2
20260831095803 67 0.0 0.0 0.01 0.02 0.01 61 1015.3
20260831095252 67 0.0 0.0 0.01 0.02 0.01 61 1015.3
20260831094759 67 0.0 0.0 0.01 0.02 0.01 61 1015.3
20260831094250 67 0.0 0.0 0.01 0.02 0.01 61 1015.6
20260831093756 67 0.0 0.0 0.01 0.02 0.01 61 1015.8
20260831092751 67 0.0 0.0 0.00 0.01 0.00 61 1015.7
20260831092300 67 0.0 0.0 0.00 0.01 0.00 61 1015.8
20260831091749 67 0.0 0.0 0.00 0.01 0.00 61 1015.7
20260831091259 67 0.0 0.0 0.00 0.01 0.00 61 1015.5
20260831090748 67 0.0 0.0 0.00 0.01 0.00 61 1015.5
20260831090258 67 0.0 0.0 0.00 0.01 0.00 61 1015.7
20260831085806 67 0.0 0.0 0.00 0.01 0.00 61 1015.8
20260831085254 66 0.0 0.0 0.00 0.01 0.00 61 1015.6
20260831084802 66 0.0 0.0 0.00 0.01 0.00 61 1015.5
20260831084253 66 0.0 0.0 0.00 0.01 0.00 61 1015.3
20260831083759 66 0.0 0.0 0.00 0.01 0.00 62 1015.2
20260831083248 67 0.0 0.0 0.00 0.01 0.00 62 1015.0
20260831082757 67 0.0 0.0 0.00 0.01 0.00 61 1015.3
20260831082300 67 0.0 0.0 0.00 0.01 0.00 61 1015.4
20260831081750 67 0.0 0.0 0.00 0.01 0.00 61 1015.4
20260831081257 67 0.0 0.0 0.00 0.01 0.00 61 1015.8
20260831080251 67 0.0 0.0 0.00 0.01 0.00 62 1015.8
20260831075758 67 0.0 0.0 0.00 0.01 0.00 61 1015.8
20260831075307 67 0.0 0.0 0.00 0.01 0.00 62 1016.0
20260831074755 67 0.0 0.0 0.00 0.01 0.00 62 1015.8
20260831074303 67 0.0 0.0 0.00 0.01 0.00 62 1015.8
20260831073754 66 0.0 0.0 0.00 0.01 0.00 62 1015.8
20260831073300 66 0.0 0.0 0.00 0.01 0.00 62 1015.6
20260831072807 66 0.0 0.0 0.00 0.01 0.00 62 1015.3
20260831072257 66 0.0 0.0 0.00 0.01 0.00 62 1015.2
20260831071807 66 0.0 0.0 0.00 0.01 0.00 62 1015.0
20260831071255 66 0.0 0.0 0.00 0.01 0.00 62 1014.7
20260831070802 66 0.0 0.0 0.00 0.01 0.00 62 1014.8
20260831070252 66 0.0 0.0 0.00 0.01 0.00 62 1014.8
20260831065759 66 0.0 0.0 0.00 0.02 0.00 62 1014.8
20260831065306 66 0.0 0.0 0.00 0.02 0.00 62 1014.9
20260831064754 66 0.0 0.0 0.00 0.02 0.00 62 1015.1
20260831064305 66 0.0 0.0 0.00 0.02 0.00 62 1015.1
20260831063751 66 0.0 0.0 0.00 0.02 0.00 62 1015.0
20260831063256 66 0.0 0.0 0.00 0.02 0.00 63 1015.2
20260831062806 66 0.0 0.0 0.00 0.02 0.00 63 1015.3
20260831062256 66 0.0 0.0 0.00 0.02 0.00 63 1015.3
20260831061803 66 0.0 0.0 0.00 0.02 0.00 63 1015.4
20260831061252 66 0.0 0.0 0.00 0.02 0.00 63 1015.4
20260831060757 66 0.0 0.0 0.00 0.02 0.00 63 1015.5
20260831060307 66 0.0 0.0 0.00 0.02 0.00 63 1015.6
20260831055757 66 0.0 0.0 0.00 0.05 0.00 63 1015.6
20260831055306 66 0.0 0.0 0.00 0.05 0.00 63 1015.5
20260831054753 66 0.0 0.0 0.00 0.05 0.00 63 1015.5
20260831054302 66 0.0 0.0 0.00 0.05 0.00 63 1015.4
20260831053751 67 0.0 0.0 0.00 0.05 0.00 63 1015.4
20260831053300 67 0.0 0.0 0.00 0.05 0.00 63 1015.5
20260831052809 67 0.0 0.0 0.00 0.05 0.00 63 1015.5
20260831052254 67 0.0 0.0 0.00 0.05 0.00 63 1015.4
20260831051304 67 0.0 0.0 0.00 0.05 0.00 63 1015.5
20260831050754 67 0.0 0.0 0.00 0.05 0.00 63 1015.6
20260831050302 67 0.0 0.0 0.00 0.05 0.00 63 1015.5
20260831045752 67 0.0 0.0 0.00 0.07 0.00 63 1015.6
20260831045259 67 0.0 0.0 0.01 0.07 0.00 63 1015.6
20260831044807 67 0.0 0.0 0.01 0.07 0.00 63 1015.6
20260831044254 67 0.0 0.0 0.01 0.07 0.00 63 1015.5
20260831043802 67 0.0 0.0 0.01 0.07 0.00 63 1015.5
20260831043250 67 0.0 0.0 0.01 0.07 0.00 64 1015.5
20260831042801 67 0.0 0.0 0.01 0.07 0.00 64 1015.5
20260831042307 67 0.0 0.0 0.01 0.07 0.00 64 1015.6
20260831041756 67 0.0 0.0 0.01 0.07 0.00 64 1015.6
20260831041303 67 0.0 0.0 0.01 0.07 0.00 64 1015.6
20260831040752 67 0.0 0.0 0.01 0.07 0.00 64 1015.6
20260831040301 67 0.0 0.0 0.01 0.07 0.00 64 1015.7
20260831035750 67 0.0 0.0 0.00 0.08 0.06 64 1015.7
20260831035259 67 0.0 0.0 0.00 0.08 0.06 64 1015.8
20260831034806 67 0.0 0.0 0.00 0.08 0.06 65 1015.9
20260831034255 67 0.0 0.0 0.00 0.08 0.06 65 1015.9
20260831033803 67 0.0 0.0 0.00 0.08 0.06 65 1015.9
20260831033251 67 0.0 0.0 0.00 0.08 0.06 65 1015.9
20260831032756 67 0.0 0.0 0.00 0.08 0.06 65 1015.8
20260831032306 67 0.0 0.0 0.00 0.08 0.06 65 1015.8
20260831031754 67 0.0 0.0 0.00 0.08 0.06 66 1015.8
20260831031305 67 0.0 0.0 0.00 0.08 0.06 66 1015.8
20260831030755 67 0.0 0.0 0.00 0.08 0.06 66 1015.9
20260831030304 67 0.0 0.0 0.00 0.08 0.06 66 1016.0
20260831025752 67 0.0 0.0 0.00 0.14 0.06 66 1016.0
20260831025259 67 0.0 0.0 0.00 0.14 0.06 67 1016.0
20260831024807 67 0.0 0.0 0.00 0.14 0.06 67 1016.0
20260831024257 67 0.0 0.0 0.00 0.14 0.06 67 1015.9
20260831023804 67 0.0 0.0 0.00 0.14 0.06 67 1016.0
20260831023254 67 0.0 0.0 0.00 0.14 0.06 67 1016.0
20260831022800 67 0.0 0.0 0.00 0.14 0.06 68 1016.0
20260831022249 67 0.0 0.0 0.00 0.14 0.06 68 1016.0
20260831021759 67 0.0 0.0 0.00 0.14 0.06 69 1015.9
20260831021306 67 0.0 0.0 0.00 0.14 0.06 69 1015.9
20260831020754 67 0.0 0.0 0.00 0.14 0.06 69 1015.9
20260831020302 68 0.0 0.0 0.00 0.14 0.06 68 1016.0
20260831015751 68 0.0 0.0 0.00 0.15 0.06 68 1016.0
20260831015258 68 0.0 0.0 0.00 0.15 0.06 68 1016.0
20260831014808 68 0.0 0.0 0.00 0.15 0.06 68 1015.8
20260831014256 68 0.0 0.0 0.00 0.15 0.06 68 1015.8
20260831013306 68 0.0 0.0 0.00 0.15 0.06 68 1015.4
20260831012755 68 0.0 0.0 0.00 0.15 0.06 68 1015.5
20260831012305 68 0.0 0.0 0.00 0.15 0.06 68 1015.7
20260831011752 68 0.0 0.0 0.00 0.15 0.06 68 1015.6
20260831011259 68 0.0 0.0 0.00 0.15 0.06 67 1015.6
20260831010808 68 0.0 0.0 0.00 0.15 0.06 68 1015.6
20260831005802 68 0.0 0.0 0.00 0.15 0.06 68 1015.5
20260831005253 68 0.0 0.0 0.00 0.15 0.06 68 1015.5
20260831004801 68 0.0 0.0 0.00 0.15 0.06 68 1015.4
20260831004251 68 0.0 0.0 0.00 0.15 0.06 68 1015.4
20260831003759 68 0.0 0.0 0.00 0.15 0.06 67 1015.3
20260831003308 68 0.0 0.0 0.00 0.15 0.06 67 1015.3
20260831002756 68 0.0 0.0 0.00 0.15 0.06 67 1015.2
20260831002259 68 0.0 0.0 0.00 0.15 0.06 67 1015.1
20260831001807 68 0.0 0.0 0.00 0.15 0.06 67 1015.2
20260831001255 68 0.0 0.0 0.00 0.15 0.06 67 1015.3
20260831000803 68 0.0 0.0 0.00 0.15 0.06 67 1015.3
20260831000251 68 0.0 0.0 0.00 0.15 0.06 67 1015.3
20260830235757 68 0.0 0.0 0.00 0.15 0.06 67 1015.2
20260830235308 68 0.0 0.0 0.00 0.15 0.06 67 1015.3
20260830234755 68 0.0 0.0 0.00 0.15 0.06 67 1015.3
20260830234303 68 0.0 0.0 0.00 0.15 0.06 67 1015.3
20260830233751 68 0.0 0.0 0.00 0.15 0.06 68 1015.1
20260830233259 68 0.0 0.0 0.00 0.15 0.06 68 1015.1
20260830232748 68 0.0 0.0 0.00 0.15 0.06 68 1015.1
20260830232258 68 0.0 0.0 0.00 0.15 0.06 68 1015.1
20260830231805 68 0.0 0.0 0.00 0.15 0.06 68 1015.0
20260830231255 68 0.0 0.0 0.00 0.15 0.06 68 1015.1
20260830230803 68 0.0 0.0 0.00 0.15 0.06 68 1015.2
20260830230253 68 0.0 0.0 0.00 0.15 0.06 68 1015.1
20260830225800 68 0.0 0.0 0.00 0.15 0.06 68 1015.1
20260830225249 69 0.0 0.0 0.00 0.15 0.06 67 1015.2
20260830224759 68 0.0 0.0 0.00 0.15 0.06 68 1015.3
20260830224307 68 0.0 0.0 0.00 0.15 0.06 68 1015.3
20260830223755 68 0.0 0.0 0.00 0.15 0.06 68 1015.3
20260830223259 68 0.0 0.0 0.00 0.15 0.06 69 1015.7
20260830222808 68 0.0 0.0 0.00 0.15 0.06 69 1015.6
20260830222255 68 0.0 0.0 0.00 0.15 0.06 69 1015.7
20260830221803 68 0.0 0.0 0.00 0.15 0.06 69 1015.8
20260830221319 68 0.0 0.0 0.00 0.15 0.06 70 1015.8
20260830220803 69 0.0 0.0 0.00 0.15 0.06 70 1015.6
20260830220311 69 0.0 0.0 0.00 0.15 0.06 71 1015.5
20260830215759 69 0.0 0.0 0.00 0.15 0.06 71 1015.6
20260830215306 69 0.0 0.0 0.00 0.15 0.06 72 1015.6
20260830214756 69 0.0 0.0 0.00 0.15 0.06 72 1015.5
20260830214305 69 0.0 0.0 0.00 0.15 0.06 72 1015.4
20260830213754 69 0.0 0.0 0.00 0.15 0.06 72 1015.6
20260830213302 69 0.0 0.0 0.00 0.15 0.06 73 1015.8
20260830212751 69 0.0 0.0 0.00 0.15 0.06 73 1015.9
20260830212259 69 0.0 0.0 0.00 0.15 0.06 74 1015.9
20260830211806 69 0.0 0.0 0.00 0.15 0.06 74 1015.8
20260830211256 69 0.0 0.0 0.00 0.15 0.06 74 1015.6
20260830210804 69 0.0 0.0 0.00 0.15 0.06 75 1015.5
20260830210256 70 0.0 0.0 0.00 0.15 0.06 75 1015.5
20260830205802 70 0.0 0.0 0.00 0.15 0.06 76 1015.6
20260830205309 70 0.0 0.0 0.00 0.15 0.06 78 1015.6
20260830204758 70 0.0 0.0 0.00 0.15 0.06 79 1015.5
20260830204250 70 0.0 0.0 0.00 0.15 0.06 81 1015.5
20260830203756 71 0.0 0.0 0.00 0.15 0.06 82 1015.5
20260830203303 71 0.0 0.0 0.00 0.15 0.06 83 1015.3
20260830202753 71 0.0 0.0 0.00 0.15 0.06 84 1015.4
20260830202301 71 0.0 0.0 0.00 0.15 0.06 84 1015.4
20260830201752 72 0.0 0.0 0.00 0.15 0.06 84 1015.3
20260830201300 72 0.0 0.0 0.00 0.15 0.06 85 1015.4
20260830200750 72 0.0 0.0 0.00 0.15 0.06 86 1015.4
20260830200258 72 0.0 0.0 0.00 0.15 0.06 86 1015.4
20260830195805 72 0.0 0.0 0.00 0.15 0.06 86 1015.4
20260830195254 72 0.0 0.0 0.00 0.15 0.06 86 1015.3
20260830194802 72 0.0 0.0 0.00 0.15 0.06 86 1015.3
20260830194251 72 0.0 0.0 0.00 0.15 0.06 86 1015.4
20260830193759 72 0.0 0.0 0.00 0.15 0.06 86 1015.3
20260830193249 72 0.0 0.0 0.00 0.15 0.06 86 1015.4
20260830192758 73 0.0 0.0 0.00 0.15 0.06 85 1015.3
20260830192305 73 0.0 0.0 0.00 0.15 0.06 85 1015.3
20260830191753 73 0.0 0.0 0.00 0.15 0.06 85 1015.3
20260830191301 73 0.0 0.0 0.00 0.15 0.06 85 1015.2
20260830190751 73 0.0 0.0 0.00 0.15 0.06 85 1015.2
20260830190259 73 0.0 0.0 0.00 0.15 0.06 84 1015.2
20260830185808 73 0.0 0.0 0.00 0.15 0.06 84 1015.3
20260830185258 73 0.0 0.0 0.00 0.15 0.06 84 1015.4
20260830184802 73 0.0 0.0 0.00 0.15 0.06 84 1015.5
20260830184250 73 0.0 0.0 0.00 0.15 0.06 84 1015.4
20260830183759 73 0.0 0.0 0.00 0.15 0.06 84 1015.3
20260830183308 73 0.0 0.0 0.00 0.15 0.06 84 1015.4
20260830182755 73 0.0 0.0 0.00 0.15 0.06 84 1015.4
20260830182306 73 0.0 0.0 0.00 0.15 0.06 84 1015.4
20260830181755 73 0.0 0.0 0.00 0.15 0.06 84 1015.4